Torna al catalogo

GLOBALSTAR M106

AttivoComunicazioniLEO
NORAD 100329·PAYLOAD·🇺🇸 United States

Lanciato Aug 16, 2026 da Cape Canaveral Space Force Station

Loading…

Prossimi Passaggi (prossime 24 ore)

TLE

AggiornatoSource: Space-Track

Epoca: Sep 13, 2026, 23:48 UTC

1 A0329U 26185E   26256.99190452  .00000230  00000-0  80521-4 0  9991
2 A0329  51.9956 113.5432 0009165 326.6909  33.3470 14.63876863  4237

Traccia GLOBALSTAR M106 in tempo reale con AllMySat

Download on the App Store